Regional Weather Roundup
Issued by NWS

Home | Current Version | Previous Version | Graphics & Text | Print | Product List | Glossary On
Versions: 1 2 3 4 5 6 7 8 9 10 11 12 13 14 15 16 17 18 19 20 21 22 23 24 25 26 27 28 29 30 31 32 33 34 35 36 37 38 39 40 41 42 43 44 45 46 47 48 49 50
000
ASUS43 KIND 241459
RWRIN

WEATHER ROUNDUP FOR INDIANA
NATIONAL WEATHER SERVICE INDIANAPOLIS IN
1100 AM EDT SAT SEP 24 2016

NOTE: "FAIR" INDICATES FEW OR NO CLOUDS BELOW 12,000 FEET WITH NO
SIGNIFICANT WEATHER AND/OR OBSTRUCTIONS TO VISIBILITY.

* - STATION DOES NOT REPORT WEATHER SUCH AS PRECIPITATION OR FOG.

+ - STATION NOT QUALITY CONTROLLED BY THE NATIONAL WEATHER SERVICE.
    USE DATA WITH CAUTION...ESPECIALLY DEWPOINT AND RELATIVE
    HUMIDITY OBSERVATIONS.

INZ001>003-010>013-019-020-241600-
NORTHWEST INDIANA

CITY           SKY/WX    TMP DP  RH WIND       PRES   REMARKS
GARY /AIRPORT/ CLOUDY    68  64  88 E6        30.20S
RENSSELAER +   CLOUDY    68  64  88 E8        30.19S

$$

LMZ046-743>745-241600-
SOUTHERN LAKE MICHIGAN

STATION/POSITION TIME  TEMP    WIND        PRES    WAVE
                       AIR SEA DIR/SP/G            HT
                 (UTC) (F)     (DEG/KT/KT) (MB)    (FT)
BURNS HARBOR     1406   64      60/  6/ 10 1023.0R
MICHIGAN CITY    1400   63      70/  5/  6   N/A
5NW MICH CITY    1400   63 70   90/  8/ 10   N/A     2

$$

INZ004-005-014>016-021>024-241600-
NORTH CENTRAL INDIANA

CITY           SKY/WX    TMP DP  RH WIND       PRES   REMARKS
GOSHEN         CLOUDY    66  58  75 E13       30.22S
SOUTH BEND     CLOUDY    64  58  80 E9        30.23R

$$

INZ006>009-017-018-025>027-241600-
NORTHEAST INDIANA

CITY           SKY/WX    TMP DP  RH WIND       PRES   REMARKS
ANGOLA *+      CLOUDY    63  54  72 E7        30.24R
FORT WAYNE     CLOUDY    66  60  81 NE10      30.22R
KENDALLVILLE + CLOUDY    64  57  79 E7        30.23F

$$

INZ028-029-035-036-043>045-051>053-241600-
WEST CENTRAL INDIANA

CITY           SKY/WX    TMP DP  RH WIND       PRES   REMARKS
CRAWFORDSVL +  CLOUDY    66  66 100 E5        30.18R FOG
GREENCASTLE +  CLOUDY    70  70 100 SE6       30.18S FOG
LAFAYETTE      CLOUDY    68  66  93 E7        30.17S
TERRE HAUTE    SUNNY     79  68  69 CALM      30.15S

$$

INZ030>032-037>040-046>048-054>057-064-065-241600-
CENTRAL INDIANA

CITY           SKY/WX    TMP DP  RH WIND       PRES   REMARKS
ANDERSON       CLOUDY    66  64  94 NE6       30.20S FOG
COLUMBUS       CLOUDY    68  68 100 CALM      30.18R FOG
INDIANAPOLIS   CLOUDY    70  66  87 E8        30.17R FOG
-EAGLE CREEK   CLOUDY    69  65  86 E7        30.18R FOG
MT COMFORT *+  CLOUDY    68  64  88 E5        30.20R
SHELBYVILLE    CLOUDY    72  65  78 VRB3      30.18R HAZE

$$

INZ033-034-041-042-049-050-058-059-241600-
EAST CENTRAL INDIANA

CITY           SKY/WX    TMP DP  RH WIND       PRES   REMARKS
MUNCIE         CLOUDY    68  64  87 NE8       30.20S FOG

$$

INZ060-061-067>069-081>083-085>088-241600-
SOUTHWEST INDIANA

CITY           SKY/WX    TMP DP  RH WIND       PRES   REMARKS
EVANSVILLE     SUNNY     81  67  62 VRB3      30.14S
HUNTINGBURG *+   N/A     79  68  69 CALM      30.14F

$$

INZ062-063-066-070>080-084-089>092-241600-
SOUTH CENTRAL AND SOUTHEAST INDIANA

CITY           SKY/WX    TMP DP  RH WIND       PRES   REMARKS
BLOOMINGTON    SUNNY     77  67  71 E3        30.16S
MADISON *+     SUNNY     77  64  65 E3        30.18S
SEYMOUR +      SUNNY     77  66  69 NE6       30.16R

$$





USA.gov is the U.S. government's official web portal to all federal, state and local government web resources and services.